Regional Weather Roundup
Issued by NWS

Home | Current Version | Previous Version | Graphics & Text | Print | Product List | Glossary On
Versions: 1 2 3 4 5 6 7 8 9 10 11 12 13 14 15 16 17 18 19 20 21 22 23 24 25 26 27 28 29 30 31 32 33 34 35 36 37 38 39 40 41 42 43 44 45 46 47 48 49 50
000
ASUS45 KBOU 291207
RWRCO

WEATHER ROUNDUP FOR COLORADO
NATIONAL WEATHER SERVICE DENVER/BOULDER CO
600 AM MDT MON JUN 29 2015

NOTE: "FAIR" INDICATES FEW OR NO CLOUDS BELOW 12000 FEET WITH NO
SIGNIFICANT WEATHER AND/OR OBSTRUCTIONS TO VISIBILITY.

COZ001>005-013-030-031-291300-
...NORTHWEST COLORADO...

CITY           SKY/WX    TMP DP  RH WIND       PRES   REMARKS
CRAIG          PTCLDY    52  45  77 CALM      30.28R
HAYDEN         PTCLDY    57  43  58 E8        30.29S
MEEKER         PTCLDY    56  45  66 CALM      30.28R
MOUNT WERNER   NOT AVBL
STEAMBOAT SPGS PTCLDY    54  45  72 CALM      30.32R
WALDEN         CLEAR     45  37  76 SE5       30.43R
$$

COZ006>008-011-291300-
...WEST CENTRAL VALLEYS...

CITY           SKY/WX    TMP DP  RH WIND       PRES   REMARKS
GRAND JUNCTION CLEAR     72  44  36 E13       30.14R
MONTROSE       PTCLDY    67  47  48 S3        30.25R
EAGLE          NOT AVBL
RIFLE          PTCLDY    66  45  46 S3        30.23R
DELTA          PTCLDY    66  46  48 NE7       30.21R
NUCLA          PTCLDY    63  45  51 E10       30.30R
$$

COZ017>023-064>068-291300-
...SOUTHWEST COLORADO...

CITY           SKY/WX    TMP DP  RH WIND       PRES   REMARKS
DURANGO        MOCLDY    54  45  71 CALM      30.33R
CORTEZ         CLEAR     57  45  64 E6        30.27R
PAGOSA SPRINGS PTCLDY    59  42  53 CALM      30.40F
TELLURIDE      PTCLDY    58  40  52 SE6       30.51S
WOLF CREEK PAS NOT AVBL
$$

COZ009-010-012-014-032>034-037-058>063-291300-
...CENTRAL COLORADO...

CITY           SKY/WX    TMP DP  RH WIND       PRES   REMARKS
ASPEN          MOCLDY    53  45  74 CALM      30.39R
BUENA VISTA    PTCLDY    52  48  87 CALM      30.42F
COPPER MTN     MOCLDY    54  32  43 SW3       30.69S
BERTHOUD PASS  FAIR      45  34  65 W14       30.74S
COTTONWOOD PAS NOT AVBL
GUNNISON       MOCLDY    54  45  71 CALM      30.46S
KREMMLING      CLEAR     50  43  76 CALM      30.41R
LEADVILLE      MOCLDY    44  42  93 CALM      30.54S
MONARCH PASS   MOCLDY    46  36  66 W25       30.78F
SALIDA         PTCLDY    57  50  76 NW9       30.47R
SUNLIGHT       MOCLDY    55  39  54 CALM      30.64R
WILKERSON PASS CLOUDY    52  34  50 NW6       30.67R
$$

COZ069>075-291300-
...SAN LUIS VALLEY/SANGRE DE CRISTO MOUNTAINS...

CITY           SKY/WX    TMP DP  RH WIND       PRES   REMARKS
ALAMOSA        PTCLDY    49  47  93 SW5       30.39S
LA VETA PASS   PTCLDY    46  37  71 MISG      30.53R
SAGUACHE       MOCLDY    54  46  76 N12       30.42S
$$

COZ035-036-038>040-291300-
...NORTHERN COLORADO FRONT RANGE...

CITY           SKY/WX    TMP DP  RH WIND       PRES   REMARKS
DENVER INTL AP MOCLDY    64  53  67 NW5       30.21R
DMNS CITY PARK   N/A     64  53  68 N3        30.21R
AURORA         MOCLDY    62  51  67 W3        30.23R
FRONT RANGE AP PTCLDY    61  54  77 W7        30.22R
ERIE MUNI ARPT MOCLDY    57  54  88 CALM      30.20R
BOULDER MUN AP MOCLDY    64  48  55 CALM      30.21R
CENTENNIAL     CLOUDY    66  50  56 W7        30.24R
BROOMFIELD     MOCLDY    66  50  55 NW12      30.23R
FORT COLLINS   CLEAR     64  54  68 N5        30.22R
LONGMONT       CLEAR     61  55  80 W3        30.22R
$$

COZ041-046-047-076>085-087-088-291300-
...PIKES PEAK/PALMER DIVIDE AND SOUTHERN FOOTHILLS...

CITY           SKY/WX    TMP DP  RH WIND       PRES   REMARKS
COLO. SPRINGS  MOCLDY    62  52  69 N9        30.24R
A. F. ACADEMY  MOCLDY    58  53  84 N8        30.26S
ELLICOTT       MOCLDY   N/A N/A N/A MISG      30.22S
FALCON         MOCLDY    63  47  56 NW8       30.29S
FORT CARSON    CLOUDY    61  53  75 NW14      30.20R
LIMON          CLOUDY    58  56  93 N5        30.19R
MONUMENT HILL  MOCLDY    57  48  72 SW8         N/A
TRINIDAD       PTCLDY    58  48  69 W8        30.24R
$$

COZ042>045-048>051-090-091-291300-
...NORTHEAST COLORADO...

CITY           SKY/WX    TMP DP  RH WIND       PRES   REMARKS
GREELEY ARPT   PTCLDY    63  57  82 NE5       30.20R
AKRON          LGT RAIN  62  57  83 NE17G23   30.20R
BURLINGTON     CLOUDY    62  54  74 W7        30.14R
WRAY           MOCLDY    67  56  68 W7        30.13S
STERLING       CLOUDY    66  55  68 SE15      30.14F
HOLYOKE        MOCLDY    70  55  60 W9        30.13R
FORT MORGAN    CLOUDY    61   7  12 NE10      30.19R
$$

COZ086-089-092>099-291300-
...SOUTHEAST COLORADO...

CITY           SKY/WX    TMP DP  RH WIND       PRES   REMARKS
PUEBLO         CLOUDY    62  58  86 CALM      30.15S
LA JUNTA       MOCLDY    63  58  83 CALM      30.14R
LAMAR          MOCLDY    60  58  92 CALM      30.11R
SPRINGFIELD      N/A     62  54  74 N8        30.14R
$$


USA.gov is the U.S. government's official web portal to all federal, state and local government web resources and services.